Overview Statistics Trail Chart Weather Telemetry Raw packets
 

This is the latest recevied weather packets stored in our database for station/object N5ATR. If no packets are shown the sender has not sent any weather packets the latest 10 day(s).

<< 73 74 75 76 77 78 79 >>
Time Temp. Humidity Pressure Rain* Wind** Luminosity Snow
1788166915 17.78° C 53% 1022.3 hPa 0 mm - 0 W/m² -
1788166611 17.78° C 54% 1022.8 hPa 0 mm - 0 W/m² -
1788166306 17.78° C 54% 1022.6 hPa 0 mm - 0 W/m² -
1788166002 18.33° C 52% 1022.8 hPa 0 mm - 0 W/m² -
1788165698 18.33° C 53% 1022.6 hPa 0 mm - 0 W/m² -
1788165394 18.89° C 52% 1022.5 hPa 0 mm - 0 W/m² -
1788165089 18.33° C 51% 1022.4 hPa 0 mm - 0 W/m² -
1788164787 18.33° C 52% 1022.6 hPa 0 mm - 0 W/m² -
1788164483 18.89° C 51% 1022.6 hPa 0 mm - 0 W/m² -
1788164178 18.89° C 51% 1022.9 hPa 0 mm - 0 W/m² -
1788163874 18.89° C 50% 1022.8 hPa 0 mm - 0 W/m² -
1788163569 18.89° C 50% 1022.8 hPa 0 mm - 0 W/m² -
1788163264 19.44° C 49% 1023 hPa 0 mm - 0 W/m² -
1788162960 18.89° C 49% 1022.8 hPa 0 mm - 0 W/m² -
1788162655 18.89° C 49% 1022.8 hPa 0 mm - 0 W/m² -
1788162355 18.89° C 49% 1023 hPa 0 mm - 0 W/m² -
1788162055 17.78° C 51% 1022.9 hPa 0 mm - 0 W/m² -
1788161750 18.33° C 50% 1023.1 hPa 0 mm - 0 W/m² -
1788161449 19.44° C 49% 1022.9 hPa 0 mm - 0 W/m² -
1788161144 19.44° C 49% 1023 hPa 0 mm - 0 W/m² -
1788160841 19.44° C 49% 1022.9 hPa 0 mm - 0 W/m² -
1788160539 20° C 47% 1023.1 hPa 0 mm - 0 W/m² -
1788160235 19.44° C 48% 1023 hPa 0 mm - 0 W/m² -
1788159934 18.89° C 49% 1023.1 hPa 0 mm - 0 W/m² -
1788159629 19.44° C 48% 1023 hPa 0 mm - 0 W/m² -

* Rain latest hour (hover to see other rain measurements)
** Current wind speed in m/s (hover to see current wind gust speed)